User: anonymous
Location: Unspecified
(0.0000°N, 0.0000°E)
Time: 15:43:15
(UTC+02:00)
Language:

YAOGAN 3 - Orbit

View from above orbital plane
View from above orbital plane
View from above satellite
View from above satellite

Ground track
Ground track

The orbit data is extracted from the following two-line orbital elements,

1 32289U 07055A   14106.18348435  .00001040  00000-0  13849-3 0  1095
2 32289 097.9357 098.6592 0001753 101.4245 258.7161 14.81784323347340
Epoch (UTC): 16 April 2014 04:24:13
Eccentricity: 0.0001753
inclination: 97.9357°
perigee height: 622 km
apogee height: 625 km
right ascension of ascending node: 98.6592°
argument of perigee: 101.4245°
revolutions per day: 14.81784323
mean anomaly at epoch: 258.7161°
orbit number at epoch: 34734

The dashed part of the orbit path shows where the satellite is in the earth's shadow,  

DLR